#timestamp,LO_Frequency,Hit,StdDev 
1544508015.3,286046998.7,N
1544508035.2,286047000.9,N
1544508055.0,286046999.4,N
1544508055.9,286046999.4,N
1544508075.8,286046996.7,N
1544508095.6,286046994.9,Y
1544508115.4,286046999.5,P
1544508135.3,286046998.8,N
1544508155.1,286046998.7,N
1544508175.9,286046999.1,N
1544508195.7,286046998.5,N
1544508215.5,286047000.2,N
1544508235.4,286047001.9,N
1544508255.2,286047003.7,Y
1544508275.1,286047003.2,P
1544508276.0,286047003.2,N
1544508295.8,286047001.6,N
1544508315.6,286047001.8,N
1544508335.5,286047002.2,N
1544508355.3,286047000.5,N
1544508375.4,286047000.9,N
1544508395.2,286047002.2,N
1544508415.0,286047002.1,N
1544508415.9,286047002.1,N
1544508435.8,286047002.8,N
1544508455.6,286047000.0,N
1544508475.5,286047001.0,N
1544508495.3,286046998.6,N
1544508515.2,286046998.8,N
1544508535.9,286046998.5,N
1544508555.7,286046998.3,N
1544508575.6,286046998.9,N
1544508595.4,286046998.8,N
1544508615.3,286047001.1,N
1544508635.1,286047001.2,N
1544508655.8,286047000.8,N
1544508675.1,286046998.2,N
1544508676.0,286046998.2,N
1544508695.8,286046999.0,N
1544508715.7,286047000.8,N
1544508735.5,286047002.7,N
1544508755.3,286047002.8,N
1544508775.2,286047001.5,N
1544508795.0,286047002.0,N
1544508795.9,286047002.0,N
1544508815.8,286047002.4,N
1544508835.6,286047002.5,N
1544508855.4,286047002.5,N
1544508875.3,286047002.1,N
1544508895.1,286046999.9,N
1544508915.9,286046999.0,N
1544508935.7,286047000.7,N
1544508955.5,286046998.6,N
1544508975.4,286046998.0,N
1544508995.2,286046997.7,N
1544509015.0,286046995.4,N
1544509016.0,286046995.4,N
1544509035.8,286046997.1,N
1544509055.6,286046996.8,N
1544509075.5,286046997.0,N
1544509095.3,286046998.6,N
1544509115.1,286046998.4,N
1544509135.9,286046998.5,N
1544509155.7,286046998.8,N
1544509175.6,286046999.0,N
1544509195.4,286046999.0,N
1544509215.2,286046997.9,N
1544509235.1,286046998.0,N
1544509236.0,286046998.0,N
1544509255.8,286046996.2,N
1544509275.7,286046995.9,N
1544509295.5,286046993.9,N
1544509315.3,286046993.2,N
1544509335.2,286046988.5,Y
1544509355.0,286046991.0,P
1544509355.9,286046991.0,N
1544509375.7,286046990.7,N
1544509395.6,286046992.3,N
1544509415.4,286046994.3,N
1544509435.3,286046994.0,N
1544509455.1,286046994.7,N
1544509456.0,286046994.7,N
1544509475.8,286046994.0,N
1544509495.7,286046994.5,N
1544509515.5,286046994.3,N
1544509535.4,286046994.8,N
1544509555.2,286046991.7,Y
1544509575.0,286047000.8,P
1544509575.9,286047000.8,N
1544509595.8,286047000.9,N
1544509615.6,286047001.0,N
1544509635.5,286046998.2,N
1544509655.3,286046998.2,N
1544509675.1,286046998.2,N
1544509695.9,286047000.3,N
1544509715.7,286047001.1,N
1544509735.6,286046998.4,N
1544509755.4,286046998.1,N
1544509775.2,286047000.0,N
1544509795.1,286047001.0,N
1544509796.0,286047001.0,N
1544509815.8,286046998.1,N
1544509835.6,286046998.1,N
1544509855.5,286047002.4,N
1544509875.3,286047002.4,N
1544509895.2,286047002.7,N
1544509915.9,286047002.3,N
1544509935.7,286047002.6,N
1544509955.6,286047002.0,N
1544509975.4,286047001.7,N
1544509995.2,286047002.5,N
1544510015.1,286047002.0,N
1544510016.0,286047002.0,N
1544510035.8,286047002.5,N
1544510055.7,286047001.3,N
1544510075.5,286047003.0,N
1544510095.3,286047003.4,N
1544510115.2,286047003.9,N
1544510135.0,286047001.6,N
1544510135.9,286047001.6,N
1544510155.8,286047001.5,N
1544510175.6,286047004.2,N
1544510195.4,286047001.3,N
1544510215.6,286047003.7,N
1544510235.5,286047003.8,N
1544510255.3,286047003.8,N
1544510275.1,286047001.8,N
1544510295.9,286047001.6,N
1544510315.7,286047002.0,N
1544510335.6,286047004.2,Y
1544510355.4,286047000.6,P
1544510375.2,286047000.4,N
1544510395.1,286047000.3,N
1544510396.0,286047000.3,N
1544510415.8,286047002.2,Y
1544510435.6,286047000.2,P
1544510455.5,286047001.8,P
1544510475.3,286047002.2,P
1544510495.2,286047002.6,Y
1544510515.0,286047000.7,P
1544510515.9,286047000.7,N
1544510535.8,286047000.5,N
1544510555.6,286047002.3,Y
1544510575.4,286047001.1,P
1544510595.3,286047000.9,P
1544510615.1,286047002.6,P
1544510635.9,286047002.6,Y
1544510655.7,286046999.4,P
1544510675.5,286046998.7,N
1544510695.4,286046998.6,N
1544510715.2,286047000.9,N
1544510735.1,286047002.4,N
1544510736.0,286047002.4,N
1544510755.8,286047002.6,N
1544510775.6,286047000.8,N
1544510795.5,286047000.6,N
1544510815.3,286047000.2,N
1544510835.1,286047000.5,N
1544510855.9,286046999.9,N
1544510875.7,286047000.9,N
1544510895.6,286046998.5,N
1544510915.4,286046999.0,N
1544510935.2,286046998.5,N
1544510955.1,286047000.8,N
1544510956.0,286047000.8,N
1544510975.8,286047001.1,N
1544510995.0,286047001.0,N
1544510995.9,286047001.0,N
1544511015.7,286047000.9,N
1544511035.6,286047001.1,N
1544511055.4,286047000.7,N
1544511075.3,286046998.7,N
1544511095.1,286046998.3,N
1544511096.0,286046998.3,N
1544511115.8,286046999.5,N
1544511135.7,286046998.2,N
1544511155.5,286047000.7,N
1544511175.3,286047000.3,N
1544511195.2,286047000.4,N
1544511215.0,286047000.0,N
1544511215.9,286047000.0,N
1544511235.8,286047000.4,N
1544511255.6,286047000.8,N
1544511275.4,286047002.7,N
1544511295.3,286047000.2,N
1544511315.1,286047002.1,N
1544511335.9,286047004.0,Y
1544511355.7,286047001.5,P
1544511375.5,286047001.4,N
1544511395.4,286047004.2,P
1544511415.2,286047003.0,N
1544511435.0,286047003.0,N
1544511436.0,286047003.0,N
1544511455.8,286047003.8,Y
1544511475.2,286046999.0,P
1544511495.9,286046998.5,N
1544511515.7,286047000.9,N
1544511535.6,286047000.7,N
1544511555.4,286047000.7,N
1544511575.2,286046998.5,N
1544511595.1,286046998.3,N
1544511596.0,286046998.3,N
